owner,sensor,date,latitude,longitude,vertical_datum,mass_concentration_of_oxygen_in_sea_water,qcFlag 
DISL,ioos:station:DISL:DISL:1,2013-11-01T00:00:00Z,30.2513,-88.0778,2.402,6.4,1111122 
DISL,ioos:station:DISL:DISL:1,2013-11-01T00:30:00Z,30.2513,-88.0778,2.406,6.4,1111122 
DISL,ioos:station:DISL:DISL:1,2013-11-01T01:00:00Z,30.2513,-88.0778,2.416,6.48,1111122 
DISL,ioos:station:DISL:DISL:1,2013-11-01T01:30:00Z,30.2513,-88.0778,2.432,6.54,1111122 
DISL,ioos:station:DISL:DISL:1,2013-11-01T02:00:00Z,30.2513,-88.0778,2.441,6.48,1111122 
DISL,ioos:station:DISL:DISL:1,2013-11-01T02:30:00Z,30.2513,-88.0778,2.441,6.1,1111122 
DISL,ioos:station:DISL:DISL:1,2013-11-01T03:00:00Z,30.2513,-88.0778,2.439,6.34,1111122 
DISL,ioos:station:DISL:DISL:1,2013-11-01T03:30:00Z,30.2513,-88.0778,2.449,6.44,1111122 
DISL,ioos:station:DISL:DISL:1,2013-11-01T04:00:00Z,30.2513,-88.0778,2.432,6.56,1111122 
DISL,ioos:station:DISL:DISL:1,2013-11-01T04:30:00Z,30.2513,-88.0778,2.422,6.67,1111122 
DISL,ioos:station:DISL:DISL:1,2013-11-01T05:00:00Z,30.2513,-88.0778,2.412,6.71,1111122 
DISL,ioos:station:DISL:DISL:1,2013-11-01T05:30:00Z,30.2513,-88.0778,2.373,6.62,1111122 
DISL,ioos:station:DISL:DISL:1,2013-11-01T06:00:00Z,30.2513,-88.0778,2.366,6.59,1111122 
DISL,ioos:station:DISL:DISL:1,2013-11-01T06:30:00Z,30.2513,-88.0778,2.325,6.56,1111122 
DISL,ioos:station:DISL:DISL:1,2013-11-01T07:00:00Z,30.2513,-88.0778,2.306,6.68,1111122 
DISL,ioos:station:DISL:DISL:1,2013-11-01T07:30:00Z,30.2513,-88.0778,2.301,6.58,1111122 
DISL,ioos:station:DISL:DISL:1,2013-11-01T08:00:00Z,30.2513,-88.0778,2.32,6.62,1111122 
DISL,ioos:station:DISL:DISL:1,2013-11-01T08:30:00Z,30.2513,-88.0778,2.294,6.61,1111122 
DISL,ioos:station:DISL:DISL:1,2013-11-01T09:00:00Z,30.2513,-88.0778,2.287,6.47,1111122 
DISL,ioos:station:DISL:DISL:1,2013-11-01T09:30:00Z,30.2513,-88.0778,2.272,6.52,1111122 
DISL,ioos:station:DISL:DISL:1,2013-11-01T10:00:00Z,30.2513,-88.0778,2.24,6.52,1111122 
DISL,ioos:station:DISL:DISL:1,2013-11-01T10:30:00Z,30.2513,-88.0778,2.293,6.42,1111122 
DISL,ioos:station:DISL:DISL:1,2013-11-01T11:00:00Z,30.2513,-88.0778,2.259,6.4,1111122 
DISL,ioos:station:DISL:DISL:1,2013-11-01T11:30:00Z,30.2513,-88.0778,2.212,6.39,1111122 
DISL,ioos:station:DISL:DISL:1,2013-11-01T12:00:00Z,30.2513,-88.0778,2.219,6.26,1111122 
DISL,ioos:station:DISL:DISL:1,2013-11-01T12:30:00Z,30.2513,-88.0778,2.234,6.39,1111122 
DISL,ioos:station:DISL:DISL:1,2013-11-01T13:00:00Z,30.2513,-88.0778,2.288,6.91,1111122 
DISL,ioos:station:DISL:DISL:1,2013-11-01T13:30:00Z,30.2513,-88.0778,2.321,6.9,1111122 
DISL,ioos:station:DISL:DISL:1,2013-11-01T14:00:00Z,30.2513,-88.0778,2.28,6.72,1111122 
DISL,ioos:station:DISL:DISL:1,2013-11-01T14:30:00Z,30.2513,-88.0778,2.247,6.53,1111122 
DISL,ioos:station:DISL:DISL:1,2013-11-01T15:00:00Z,30.2513,-88.0778,2.143,6.66,1111122 
DISL,ioos:station:DISL:DISL:1,2013-11-01T15:30:00Z,30.2513,-88.0778,2.231,7.03,1111122 
DISL,ioos:station:DISL:DISL:1,2013-11-01T16:00:00Z,30.2513,-88.0778,2.224,7.2,1111122 
DISL,ioos:station:DISL:DISL:1,2013-11-01T16:30:00Z,30.2513,-88.0778,2.048,7.3,1111122 
DISL,ioos:station:DISL:DISL:1,2013-11-01T17:00:00Z,30.2513,-88.0778,2.261,7.34,1111122 
DISL,ioos:station:DISL:DISL:1,2013-11-01T17:30:00Z,30.2513,-88.0778,2.227,7.34,1111122 
DISL,ioos:station:DISL:DISL:1,2013-11-01T18:00:00Z,30.2513,-88.0778,2.211,6.73,1111122 
DISL,ioos:station:DISL:DISL:1,2013-11-01T18:30:00Z,30.2513,-88.0778,2.176,6.17,1111122 
DISL,ioos:station:DISL:DISL:1,2013-11-01T19:00:00Z,30.2513,-88.0778,2.191,6.86,1111122 
DISL,ioos:station:DISL:DISL:1,2013-11-01T19:30:00Z,30.2513,-88.0778,2.123,7.2,1111122 
DISL,ioos:station:DISL:DISL:1,2013-11-01T20:00:00Z,30.2513,-88.0778,2.104,7.0,1111122 
DISL,ioos:station:DISL:DISL:1,2013-11-01T20:30:00Z,30.2513,-88.0778,2.188,7.1,1111122 
DISL,ioos:station:DISL:DISL:1,2013-11-01T21:00:00Z,30.2513,-88.0778,2.22,7.08,1111122 
DISL,ioos:station:DISL:DISL:1,2013-11-01T21:30:00Z,30.2513,-88.0778,2.255,7.16,1111122 
DISL,ioos:station:DISL:DISL:1,2013-11-01T22:00:00Z,30.2513,-88.0778,2.337,7.17,1111122 
DISL,ioos:station:DISL:DISL:1,2013-11-01T22:30:00Z,30.2513,-88.0778,2.34,7.28,1111122 
DISL,ioos:station:DISL:DISL:1,2013-11-01T23:00:00Z,30.2513,-88.0778,2.447,7.18,1111122 
DISL,ioos:station:DISL:DISL:1,2013-11-01T23:30:00Z,30.2513,-88.0778,2.462,7.06,1111122 
DISL,ioos:station:DISL:DISL:1,2013-11-02T00:00:00Z,30.2513,-88.0778,2.453,7.1,1111122 
DISL,ioos:station:DISL:DISL:1,2013-11-02T00:30:00Z,30.2513,-88.0778,2.473,6.96,1111122 
DISL,ioos:station:DISL:DISL:1,2013-11-02T01:00:00Z,30.2513,-88.0778,2.462,7.08,1111122 
DISL,ioos:station:DISL:DISL:1,2013-11-02T01:30:00Z,30.2513,-88.0778,2.479,7.02,1111122 
DISL,ioos:station:DISL:DISL:1,2013-11-02T02:00:00Z,30.2513,-88.0778,2.469,7.12,1111122 
DISL,ioos:station:DISL:DISL:1,2013-11-02T02:30:00Z,30.2513,-88.0778,2.496,7.11,1111122 
DISL,ioos:station:DISL:DISL:1,2013-11-02T03:00:00Z,30.2513,-88.0778,2.498,7.16,1111122 
DISL,ioos:station:DISL:DISL:1,2013-11-02T03:30:00Z,30.2513,-88.0778,2.513,7.05,1111122 
DISL,ioos:station:DISL:DISL:1,2013-11-02T04:00:00Z,30.2513,-88.0778,2.501,7.07,1111122 
DISL,ioos:station:DISL:DISL:1,2013-11-02T04:30:00Z,30.2513,-88.0778,2.484,7.01,1111122 
DISL,ioos:station:DISL:DISL:1,2013-11-02T05:00:00Z,30.2513,-88.0778,2.477,7.32,1111122 
DISL,ioos:station:DISL:DISL:1,2013-11-02T05:30:00Z,30.2513,-88.0778,2.433,7.49,1111122 
DISL,ioos:station:DISL:DISL:1,2013-11-02T06:00:00Z,30.2513,-88.0778,2.422,7.44,1111122 
DISL,ioos:station:DISL:DISL:1,2013-11-02T06:30:00Z,30.2513,-88.0778,2.378,7.43,1111122 
DISL,ioos:station:DISL:DISL:1,2013-11-02T07:00:00Z,30.2513,-88.0778,2.361,7.38,1111122 
DISL,ioos:station:DISL:DISL:1,2013-11-02T07:30:00Z,30.2513,-88.0778,2.358,7.37,1111122 
DISL,ioos:station:DISL:DISL:1,2013-11-02T08:00:00Z,30.2513,-88.0778,2.334,7.25,1111122 
DISL,ioos:station:DISL:DISL:1,2013-11-02T08:30:00Z,30.2513,-88.0778,2.307,7.21,1111122 
DISL,ioos:station:DISL:DISL:1,2013-11-02T09:00:00Z,30.2513,-88.0778,2.263,7.17,1111122 
DISL,ioos:station:DISL:DISL:1,2013-11-02T09:30:00Z,30.2513,-88.0778,2.238,7.21,1111122 
DISL,ioos:station:DISL:DISL:1,2013-11-02T10:00:00Z,30.2513,-88.0778,2.235,7.22,1111122 
DISL,ioos:station:DISL:DISL:1,2013-11-02T10:30:00Z,30.2513,-88.0778,2.181,7.22,1111122 
DISL,ioos:station:DISL:DISL:1,2013-11-02T11:00:00Z,30.2513,-88.0778,2.233,7.17,1111122 
DISL,ioos:station:DISL:DISL:1,2013-11-02T11:30:00Z,30.2513,-88.0778,2.225,7.17,1111122 
DISL,ioos:station:DISL:DISL:1,2013-11-02T12:00:00Z,30.2513,-88.0778,2.21,7.15,1111122 
DISL,ioos:station:DISL:DISL:1,2013-11-02T12:30:00Z,30.2513,-88.0778,2.186,7.2,1111122 
DISL,ioos:station:DISL:DISL:1,2013-11-02T13:00:00Z,30.2513,-88.0778,2.215,7.1,1111122 
DISL,ioos:station:DISL:DISL:1,2013-11-02T13:30:00Z,30.2513,-88.0778,2.21,7.03,1111122 
DISL,ioos:station:DISL:DISL:1,2013-11-02T14:00:00Z,30.2513,-88.0778,2.189,7.05,1111122 
DISL,ioos:station:DISL:DISL:1,2013-11-02T14:30:00Z,30.2513,-88.0778,2.156,7.09,1111122 
DISL,ioos:station:DISL:DISL:1,2013-11-02T15:00:00Z,30.2513,-88.0778,2.216,7.08,1111122 
DISL,ioos:station:DISL:DISL:1,2013-11-02T15:30:00Z,30.2513,-88.0778,2.18,7.37,1111122 
DISL,ioos:station:DISL:DISL:1,2013-11-02T16:00:00Z,30.2513,-88.0778,2.193,7.47,1111122 
DISL,ioos:station:DISL:DISL:1,2013-11-02T16:30:00Z,30.2513,-88.0778,2.189,7.3,1111122 
DISL,ioos:station:DISL:DISL:1,2013-11-02T17:00:00Z,30.2513,-88.0778,2.174,6.95,1111122 
DISL,ioos:station:DISL:DISL:1,2013-11-02T17:30:00Z,30.2513,-88.0778,2.177,7.06,1111122 
DISL,ioos:station:DISL:DISL:1,2013-11-02T18:00:00Z,30.2513,-88.0778,2.141,7.38,1111122 
DISL,ioos:station:DISL:DISL:1,2013-11-02T18:30:00Z,30.2513,-88.0778,2.131,7.36,1111122 
DISL,ioos:station:DISL:DISL:1,2013-11-02T19:00:00Z,30.2513,-88.0778,2.147,7.46,1111122 
DISL,ioos:station:DISL:DISL:1,2013-11-02T19:30:00Z,30.2513,-88.0778,2.245,7.56,1111122 
DISL,ioos:station:DISL:DISL:1,2013-11-02T20:00:00Z,30.2513,-88.0778,2.26,7.69,1111122 
DISL,ioos:station:DISL:DISL:1,2013-11-02T20:30:00Z,30.2513,-88.0778,2.264,8.01,1111122 
DISL,ioos:station:DISL:DISL:1,2013-11-02T21:00:00Z,30.2513,-88.0778,2.303,7.96,1111122 
DISL,ioos:station:DISL:DISL:1,2013-11-02T21:30:00Z,30.2513,-88.0778,2.461,7.95,1111122 
DISL,ioos:station:DISL:DISL:1,2013-11-02T22:00:00Z,30.2513,-88.0778,2.348,7.98,1111122 
DISL,ioos:station:DISL:DISL:1,2013-11-02T22:30:00Z,30.2513,-88.0778,2.448,8.01,1111122 
DISL,ioos:station:DISL:DISL:1,2013-11-02T23:00:00Z,30.2513,-88.0778,2.429,8.02,1111122 
DISL,ioos:station:DISL:DISL:1,2013-11-02T23:30:00Z,30.2513,-88.0778,2.437,7.97,1111122 
DISL,ioos:station:DISL:DISL:1,2013-11-03T00:00:00Z,30.2513,-88.0778,2.42,7.93,1111122 
DISL,ioos:station:DISL:DISL:1,2013-11-03T00:30:00Z,30.2513,-88.0778,2.427,7.88,1111122 
DISL,ioos:station:DISL:DISL:1,2013-11-03T01:00:00Z,30.2513,-88.0778,2.429,7.82,1111122 
DISL,ioos:station:DISL:DISL:1,2013-11-03T01:30:00Z,30.2513,-88.0778,2.439,7.76,1111122 
DISL,ioos:station:DISL:DISL:1,2013-11-03T02:00:00Z,30.2513,-88.0778,2.435,7.73,1111122 
DISL,ioos:station:DISL:DISL:1,2013-11-03T02:30:00Z,30.2513,-88.0778,2.446,7.64,1111122 
DISL,ioos:station:DISL:DISL:1,2013-11-03T03:00:00Z,30.2513,-88.0778,2.464,7.61,1111122 
DISL,ioos:station:DISL:DISL:1,2013-11-03T03:30:00Z,30.2513,-88.0778,2.469,7.63,1111122 
DISL,ioos:station:DISL:DISL:1,2013-11-03T04:00:00Z,30.2513,-88.0778,2.515,7.59,1111122 
DISL,ioos:station:DISL:DISL:1,2013-11-03T04:30:00Z,30.2513,-88.0778,2.392,7.56,1111122 
DISL,ioos:station:DISL:DISL:1,2013-11-03T05:00:00Z,30.2513,-88.0778,2.424,7.54,1111122 
DISL,ioos:station:DISL:DISL:1,2013-11-03T05:30:00Z,30.2513,-88.0778,2.389,7.53,1111122 
DISL,ioos:station:DISL:DISL:1,2013-11-03T06:00:00Z,30.2513,-88.0778,2.354,7.54,1111122 
DISL,ioos:station:DISL:DISL:1,2013-11-03T06:30:00Z,30.2513,-88.0778,2.323,7.52,1111122 
DISL,ioos:station:DISL:DISL:1,2013-11-03T07:00:00Z,30.2513,-88.0778,2.27,7.53,1111122 
DISL,ioos:station:DISL:DISL:1,2013-11-03T07:30:00Z,30.2513,-88.0778,2.339,7.61,1111122 
DISL,ioos:station:DISL:DISL:1,2013-11-03T08:00:00Z,30.2513,-88.0778,2.243,7.65,1111122 
DISL,ioos:station:DISL:DISL:1,2013-11-03T08:30:00Z,30.2513,-88.0778,2.23,7.54,1111122 
DISL,ioos:station:DISL:DISL:1,2013-11-03T09:00:00Z,30.2513,-88.0778,2.298,7.51,1111122 
DISL,ioos:station:DISL:DISL:1,2013-11-03T09:30:00Z,30.2513,-88.0778,2.198,7.51,1111122 
DISL,ioos:station:DISL:DISL:1,2013-11-03T10:00:00Z,30.2513,-88.0778,2.156,7.54,1111122 
DISL,ioos:station:DISL:DISL:1,2013-11-03T10:30:00Z,30.2513,-88.0778,2.162,7.56,1111122 
DISL,ioos:station:DISL:DISL:1,2013-11-03T11:00:00Z,30.2513,-88.0778,2.1,7.6,1111122 
DISL,ioos:station:DISL:DISL:1,2013-11-03T11:30:00Z,30.2513,-88.0778,1.994,7.65,1111122 
DISL,ioos:station:DISL:DISL:1,2013-11-03T12:00:00Z,30.2513,-88.0778,2.143,7.65,1111122 
DISL,ioos:station:DISL:DISL:1,2013-11-03T12:30:00Z,30.2513,-88.0778,2.051,7.7,1111122 
DISL,ioos:station:DISL:DISL:1,2013-11-03T13:00:00Z,30.2513,-88.0778,2.108,7.62,1111122 
DISL,ioos:station:DISL:DISL:1,2013-11-03T13:30:00Z,30.2513,-88.0778,2.248,7.62,1111122 
DISL,ioos:station:DISL:DISL:1,2013-11-03T14:00:00Z,30.2513,-88.0778,2.221,7.62,1111122 
DISL,ioos:station:DISL:DISL:1,2013-11-03T14:30:00Z,30.2513,-88.0778,2.164,7.58,1111122 
DISL,ioos:station:DISL:DISL:1,2013-11-03T15:00:00Z,30.2513,-88.0778,2.157,7.21,1111122 
DISL,ioos:station:DISL:DISL:1,2013-11-03T15:30:00Z,30.2513,-88.0778,2.09,6.95,1111122 
DISL,ioos:station:DISL:DISL:1,2013-11-03T16:00:00Z,30.2513,-88.0778,2.183,7.18,1111122 
DISL,ioos:station:DISL:DISL:1,2013-11-03T16:30:00Z,30.2513,-88.0778,2.262,7.46,1111122 
DISL,ioos:station:DISL:DISL:1,2013-11-03T17:00:00Z,30.2513,-88.0778,2.186,7.48,1111122 
DISL,ioos:station:DISL:DISL:1,2013-11-03T17:30:00Z,30.2513,-88.0778,2.21,7.66,1111122 
DISL,ioos:station:DISL:DISL:1,2013-11-03T18:00:00Z,30.2513,-88.0778,2.213,7.75,1111122 
DISL,ioos:station:DISL:DISL:1,2013-11-03T18:30:00Z,30.2513,-88.0778,2.21,7.73,1111122 
DISL,ioos:station:DISL:DISL:1,2013-11-03T19:00:00Z,30.2513,-88.0778,2.236,7.78,1111122 
DISL,ioos:station:DISL:DISL:1,2013-11-03T19:30:00Z,30.2513,-88.0778,2.18,7.97,1111122 
DISL,ioos:station:DISL:DISL:1,2013-11-03T20:00:00Z,30.2513,-88.0778,2.333,7.91,1111122 
DISL,ioos:station:DISL:DISL:1,2013-11-03T20:30:00Z,30.2513,-88.0778,2.349,7.72,1111122 
DISL,ioos:station:DISL:DISL:1,2013-11-03T21:00:00Z,30.2513,-88.0778,2.34,7.01,1111122 
DISL,ioos:station:DISL:DISL:1,2013-11-03T21:30:00Z,30.2513,-88.0778,2.317,6.84,1111122 
DISL,ioos:station:DISL:DISL:1,2013-11-03T22:00:00Z,30.2513,-88.0778,2.381,6.75,1111122 
DISL,ioos:station:DISL:DISL:1,2013-11-03T22:30:00Z,30.2513,-88.0778,2.46,6.39,1111122 
DISL,ioos:station:DISL:DISL:1,2013-11-03T23:00:00Z,30.2513,-88.0778,2.486,6.53,1111122 
DISL,ioos:station:DISL:DISL:1,2013-11-03T23:30:00Z,30.2513,-88.0778,2.464,6.43,1111122 
DISL,ioos:station:DISL:DISL:1,2013-11-04T00:00:00Z,30.2513,-88.0778,2.452,6.61,1111122 
DISL,ioos:station:DISL:DISL:1,2013-11-04T00:30:00Z,30.2513,-88.0778,2.473,6.84,1111122 
DISL,ioos:station:DISL:DISL:1,2013-11-04T01:00:00Z,30.2513,-88.0778,2.494,6.8,1111122 
DISL,ioos:station:DISL:DISL:1,2013-11-04T01:30:00Z,30.2513,-88.0778,2.52,6.9,1111122 
DISL,ioos:station:DISL:DISL:1,2013-11-04T02:00:00Z,30.2513,-88.0778,2.537,6.9,1111122 
DISL,ioos:station:DISL:DISL:1,2013-11-04T02:30:00Z,30.2513,-88.0778,2.556,7.01,1111122 
DISL,ioos:station:DISL:DISL:1,2013-11-04T03:00:00Z,30.2513,-88.0778,2.585,7.91,1111122 
DISL,ioos:station:DISL:DISL:1,2013-11-04T03:30:00Z,30.2513,-88.0778,2.621,8.41,1111122 
DISL,ioos:station:DISL:DISL:1,2013-11-04T04:00:00Z,30.2513,-88.0778,2.622,8.37,1111122 
DISL,ioos:station:DISL:DISL:1,2013-11-04T04:30:00Z,30.2513,-88.0778,2.63,8.26,1111122 
DISL,ioos:station:DISL:DISL:1,2013-11-04T05:00:00Z,30.2513,-88.0778,2.631,8.26,1111122 
DISL,ioos:station:DISL:DISL:1,2013-11-04T05:30:00Z,30.2513,-88.0778,2.603,8.0,1111122 
DISL,ioos:station:DISL:DISL:1,2013-11-04T06:00:00Z,30.2513,-88.0778,2.663,7.87,1111122 
DISL,ioos:station:DISL:DISL:1,2013-11-04T06:30:00Z,30.2513,-88.0778,2.467,7.91,1111122 
DISL,ioos:station:DISL:DISL:1,2013-11-04T07:00:00Z,30.2513,-88.0778,2.592,7.78,1111122 
DISL,ioos:station:DISL:DISL:1,2013-11-04T07:30:00Z,30.2513,-88.0778,2.469,7.68,1111122 
DISL,ioos:station:DISL:DISL:1,2013-11-04T08:00:00Z,30.2513,-88.0778,2.487,7.65,1111122 
DISL,ioos:station:DISL:DISL:1,2013-11-04T08:30:00Z,30.2513,-88.0778,2.399,7.69,1111122 
DISL,ioos:station:DISL:DISL:1,2013-11-04T09:00:00Z,30.2513,-88.0778,2.318,7.8,1111122 
DISL,ioos:station:DISL:DISL:1,2013-11-04T09:30:00Z,30.2513,-88.0778,2.308,7.83,1111122 
DISL,ioos:station:DISL:DISL:1,2013-11-04T10:00:00Z,30.2513,-88.0778,2.192,7.81,1111122 
DISL,ioos:station:DISL:DISL:1,2013-11-04T10:30:00Z,30.2513,-88.0778,2.371,7.87,1111122 
DISL,ioos:station:DISL:DISL:1,2013-11-04T11:00:00Z,30.2513,-88.0778,2.313,7.89,1111122 
DISL,ioos:station:DISL:DISL:1,2013-11-04T11:30:00Z,30.2513,-88.0778,2.234,7.87,1111122 
DISL,ioos:station:DISL:DISL:1,2013-11-04T12:00:00Z,30.2513,-88.0778,2.279,7.86,1111122 
DISL,ioos:station:DISL:DISL:1,2013-11-04T12:30:00Z,30.2513,-88.0778,2.198,7.8,1111122 
DISL,ioos:station:DISL:DISL:1,2013-11-04T13:00:00Z,30.2513,-88.0778,2.122,7.77,1111122 
DISL,ioos:station:DISL:DISL:1,2013-11-04T13:30:00Z,30.2513,-88.0778,2.162,7.73,1111122 
DISL,ioos:station:DISL:DISL:1,2013-11-04T14:00:00Z,30.2513,-88.0778,2.17,7.7,1111122 
DISL,ioos:station:DISL:DISL:1,2013-11-04T14:30:00Z,30.2513,-88.0778,2.128,7.77,1111122 
DISL,ioos:station:DISL:DISL:1,2013-11-04T15:00:00Z,30.2513,-88.0778,2.162,7.79,1111122 
DISL,ioos:station:DISL:DISL:1,2013-11-04T15:30:00Z,30.2513,-88.0778,2.134,7.58,1111122 
DISL,ioos:station:DISL:DISL:1,2013-11-04T16:00:00Z,30.2513,-88.0778,2.073,7.75,1111122 
DISL,ioos:station:DISL:DISL:1,2013-11-04T16:30:00Z,30.2513,-88.0778,2.127,7.67,1111122 
DISL,ioos:station:DISL:DISL:1,2013-11-04T17:00:00Z,30.2513,-88.0778,2.182,7.71,1111122 
DISL,ioos:station:DISL:DISL:1,2013-11-04T17:30:00Z,30.2513,-88.0778,2.192,7.72,1111122 
DISL,ioos:station:DISL:DISL:1,2013-11-04T18:00:00Z,30.2513,-88.0778,2.237,7.8,1111122 
DISL,ioos:station:DISL:DISL:1,2013-11-04T18:30:00Z,30.2513,-88.0778,2.123,7.78,1111122 
DISL,ioos:station:DISL:DISL:1,2013-11-04T19:00:00Z,30.2513,-88.0778,2.161,7.79,1111122 
DISL,ioos:station:DISL:DISL:1,2013-11-04T19:30:00Z,30.2513,-88.0778,2.128,7.77,1111122 
DISL,ioos:station:DISL:DISL:1,2013-11-04T20:00:00Z,30.2513,-88.0778,2.138,7.72,1111122 
DISL,ioos:station:DISL:DISL:1,2013-11-04T20:30:00Z,30.2513,-88.0778,2.185,7.75,1111122 
DISL,ioos:station:DISL:DISL:1,2013-11-04T21:00:00Z,30.2513,-88.0778,2.19,7.76,1111122 
DISL,ioos:station:DISL:DISL:1,2013-11-04T21:30:00Z,30.2513,-88.0778,2.241,7.78,1111122 
DISL,ioos:station:DISL:DISL:1,2013-11-04T22:00:00Z,30.2513,-88.0778,2.283,7.88,1111122 
DISL,ioos:station:DISL:DISL:1,2013-11-04T22:30:00Z,30.2513,-88.0778,2.333,7.49,1111122 
DISL,ioos:station:DISL:DISL:1,2013-11-04T23:00:00Z,30.2513,-88.0778,2.375,7.34,1111122 
DISL,ioos:station:DISL:DISL:1,2013-11-04T23:30:00Z,30.2513,-88.0778,2.363,7.32,1111122 
DISL,ioos:station:DISL:DISL:1,2013-11-05T00:00:00Z,30.2513,-88.0778,2.427,7.29,1111122 
DISL,ioos:station:DISL:DISL:1,2013-11-05T00:30:00Z,30.2513,-88.0778,2.462,7.29,1111122 
DISL,ioos:station:DISL:DISL:1,2013-11-05T01:00:00Z,30.2513,-88.0778,2.487,7.37,1111122 
DISL,ioos:station:DISL:DISL:1,2013-11-05T01:30:00Z,30.2513,-88.0778,2.488,7.14,1111122 
DISL,ioos:station:DISL:DISL:1,2013-11-05T02:00:00Z,30.2513,-88.0778,2.509,7.17,1111122 
DISL,ioos:station:DISL:DISL:1,2013-11-05T02:30:00Z,30.2513,-88.0778,2.567,7.27,1111122 
DISL,ioos:station:DISL:DISL:1,2013-11-05T03:00:00Z,30.2513,-88.0778,2.546,7.42,1111122 
DISL,ioos:station:DISL:DISL:1,2013-11-05T03:30:00Z,30.2513,-88.0778,2.623,7.48,1111122 
DISL,ioos:station:DISL:DISL:1,2013-11-05T04:00:00Z,30.2513,-88.0778,2.664,7.32,1111122 
DISL,ioos:station:DISL:DISL:1,2013-11-05T04:30:00Z,30.2513,-88.0778,2.709,7.12,1111122 
DISL,ioos:station:DISL:DISL:1,2013-11-05T05:00:00Z,30.2513,-88.0778,2.685,7.26,1111122 
DISL,ioos:station:DISL:DISL:1,2013-11-05T05:30:00Z,30.2513,-88.0778,2.647,7.47,1111122 
DISL,ioos:station:DISL:DISL:1,2013-11-05T06:00:00Z,30.2513,-88.0778,2.671,7.32,1111122 
DISL,ioos:station:DISL:DISL:1,2013-11-05T06:30:00Z,30.2513,-88.0778,2.682,7.1,1111122 
DISL,ioos:station:DISL:DISL:1,2013-11-05T07:00:00Z,30.2513,-88.0778,2.642,7.12,1111122 
DISL,ioos:station:DISL:DISL:1,2013-11-05T07:30:00Z,30.2513,-88.0778,2.666,7.19,1111122 
DISL,ioos:station:DISL:DISL:1,2013-11-05T08:00:00Z,30.2513,-88.0778,2.5,7.36,1111122 
DISL,ioos:station:DISL:DISL:1,2013-11-05T08:30:00Z,30.2513,-88.0778,2.571,7.49,1111122 
DISL,ioos:station:DISL:DISL:1,2013-11-05T09:00:00Z,30.2513,-88.0778,2.69,7.55,1111122 
DISL,ioos:station:DISL:DISL:1,2013-11-05T09:30:00Z,30.2513,-88.0778,2.647,7.64,1111122 
DISL,ioos:station:DISL:DISL:1,2013-11-05T10:00:00Z,30.2513,-88.0778,2.461,7.67,1111122 
DISL,ioos:station:DISL:DISL:1,2013-11-05T10:30:00Z,30.2513,-88.0778,2.505,7.67,1111122 
DISL,ioos:station:DISL:DISL:1,2013-11-05T11:00:00Z,30.2513,-88.0778,2.303,7.72,1111122 
DISL,ioos:station:DISL:DISL:1,2013-11-05T11:30:00Z,30.2513,-88.0778,2.203,7.71,1111122 
DISL,ioos:station:DISL:DISL:1,2013-11-05T12:00:00Z,30.2513,-88.0778,2.462,7.7,1111122 
DISL,ioos:station:DISL:DISL:1,2013-11-05T12:30:00Z,30.2513,-88.0778,2.295,7.69,1111122 
DISL,ioos:station:DISL:DISL:1,2013-11-05T13:00:00Z,30.2513,-88.0778,2.307,7.67,1111122 
DISL,ioos:station:DISL:DISL:1,2013-11-05T13:30:00Z,30.2513,-88.0778,2.406,7.66,1111122 
DISL,ioos:station:DISL:DISL:1,2013-11-05T14:00:00Z,30.2513,-88.0778,2.388,7.61,1111122 
DISL,ioos:station:DISL:DISL:1,2013-11-05T14:30:00Z,30.2513,-88.0778,2.313,7.62,1111122 
DISL,ioos:station:DISL:DISL:1,2013-11-05T15:00:00Z,30.2513,-88.0778,2.246,7.32,1111122 
DISL,ioos:station:DISL:DISL:1,2013-11-05T15:30:00Z,30.2513,-88.0778,2.224,7.06,1111122 
DISL,ioos:station:DISL:DISL:1,2013-11-05T16:00:00Z,30.2513,-88.0778,2.215,7.14,1111122 
DISL,ioos:station:DISL:DISL:1,2013-11-05T16:30:00Z,30.2513,-88.0778,2.163,6.94,1111122 
DISL,ioos:station:DISL:DISL:1,2013-11-05T17:00:00Z,30.2513,-88.0778,2.185,6.9,1111122 
DISL,ioos:station:DISL:DISL:1,2013-11-05T17:30:00Z,30.2513,-88.0778,2.169,7.06,1111122 
DISL,ioos:station:DISL:DISL:1,2013-11-05T18:00:00Z,30.2513,-88.0778,2.164,6.96,1111122 
DISL,ioos:station:DISL:DISL:1,2013-11-05T18:30:00Z,30.2513,-88.0778,2.159,7.06,1111122 
DISL,ioos:station:DISL:DISL:1,2013-11-05T19:00:00Z,30.2513,-88.0778,2.183,7.08,1111122 
DISL,ioos:station:DISL:DISL:1,2013-11-05T19:30:00Z,30.2513,-88.0778,2.192,6.91,1111122 
DISL,ioos:station:DISL:DISL:1,2013-11-05T20:00:00Z,30.2513,-88.0778,2.234,6.95,1111122 
DISL,ioos:station:DISL:DISL:1,2013-11-05T20:30:00Z,30.2513,-88.0778,2.245,7.0,1111122 
DISL,ioos:station:DISL:DISL:1,2013-11-05T21:00:00Z,30.2513,-88.0778,2.227,6.98,1111122 
DISL,ioos:station:DISL:DISL:1,2013-11-05T21:30:00Z,30.2513,-88.0778,2.245,6.8,1111122 
DISL,ioos:station:DISL:DISL:1,2013-11-05T22:00:00Z,30.2513,-88.0778,2.29,6.92,1111122 
DISL,ioos:station:DISL:DISL:1,2013-11-05T22:30:00Z,30.2513,-88.0778,2.361,6.92,1111122 
DISL,ioos:station:DISL:DISL:1,2013-11-05T23:00:00Z,30.2513,-88.0778,2.381,7.07,1111122 
DISL,ioos:station:DISL:DISL:1,2013-11-05T23:30:00Z,30.2513,-88.0778,2.416,7.02,1111122 
DISL,ioos:station:DISL:DISL:1,2013-11-06T00:00:00Z,30.2513,-88.0778,2.47,7.04,1111122 
DISL,ioos:station:DISL:DISL:1,2013-11-06T00:30:00Z,30.2513,-88.0778,2.467,7.37,1111122 
DISL,ioos:station:DISL:DISL:1,2013-11-06T01:00:00Z,30.2513,-88.0778,2.519,7.56,1111122 
DISL,ioos:station:DISL:DISL:1,2013-11-06T01:30:00Z,30.2513,-88.0778,2.538,7.53,1111122 
DISL,ioos:station:DISL:DISL:1,2013-11-06T02:00:00Z,30.2513,-88.0778,2.593,7.47,1111122 
DISL,ioos:station:DISL:DISL:1,2013-11-06T02:30:00Z,30.2513,-88.0778,2.636,7.37,1111122 
DISL,ioos:station:DISL:DISL:1,2013-11-06T03:00:00Z,30.2513,-88.0778,2.68,7.14,1111122 
DISL,ioos:station:DISL:DISL:1,2013-11-06T03:30:00Z,30.2513,-88.0778,2.655,7.03,1111122 
DISL,ioos:station:DISL:DISL:1,2013-11-06T04:00:00Z,30.2513,-88.0778,2.652,6.82,1111122 
DISL,ioos:station:DISL:DISL:1,2013-11-06T04:30:00Z,30.2513,-88.0778,2.67,6.87,1111122 
DISL,ioos:station:DISL:DISL:1,2013-11-06T05:00:00Z,30.2513,-88.0778,2.747,6.89,1111122 
DISL,ioos:station:DISL:DISL:1,2013-11-06T05:30:00Z,30.2513,-88.0778,2.677,6.77,1111122 
DISL,ioos:station:DISL:DISL:1,2013-11-06T06:00:00Z,30.2513,-88.0778,2.674,7.13,1111122 
DISL,ioos:station:DISL:DISL:1,2013-11-06T06:30:00Z,30.2513,-88.0778,2.669,6.97,1111122 
DISL,ioos:station:DISL:DISL:1,2013-11-06T07:00:00Z,30.2513,-88.0778,2.665,7.17,1111122 
DISL,ioos:station:DISL:DISL:1,2013-11-06T07:30:00Z,30.2513,-88.0778,2.661,7.19,1111122 
DISL,ioos:station:DISL:DISL:1,2013-11-06T08:00:00Z,30.2513,-88.0778,2.633,7.14,1111122 
DISL,ioos:station:DISL:DISL:1,2013-11-06T08:30:00Z,30.2513,-88.0778,2.552,7.16,1111122 
DISL,ioos:station:DISL:DISL:1,2013-11-06T09:00:00Z,30.2513,-88.0778,2.555,7.17,1111122 
DISL,ioos:station:DISL:DISL:1,2013-11-06T09:30:00Z,30.2513,-88.0778,2.53,7.16,1111122 
DISL,ioos:station:DISL:DISL:1,2013-11-06T10:00:00Z,30.2513,-88.0778,2.536,7.13,1111122 
DISL,ioos:station:DISL:DISL:1,2013-11-06T10:30:00Z,30.2513,-88.0778,2.48,7.29,1111122 
DISL,ioos:station:DISL:DISL:1,2013-11-06T11:00:00Z,30.2513,-88.0778,2.443,7.39,1111122 
DISL,ioos:station:DISL:DISL:1,2013-11-06T11:30:00Z,30.2513,-88.0778,2.421,7.49,1111122 
DISL,ioos:station:DISL:DISL:1,2013-11-06T12:00:00Z,30.2513,-88.0778,2.404,7.48,1111122 
DISL,ioos:station:DISL:DISL:1,2013-11-06T12:30:00Z,30.2513,-88.0778,2.41,7.48,1111122 
DISL,ioos:station:DISL:DISL:1,2013-11-06T13:00:00Z,30.2513,-88.0778,2.296,7.53,1111122 
DISL,ioos:station:DISL:DISL:1,2013-11-06T13:30:00Z,30.2513,-88.0778,2.311,7.53,1111122 
DISL,ioos:station:DISL:DISL:1,2013-11-06T14:00:00Z,30.2513,-88.0778,2.276,7.66,1111122 
DISL,ioos:station:DISL:DISL:1,2013-11-06T14:30:00Z,30.2513,-88.0778,2.298,7.75,1111122 
DISL,ioos:station:DISL:DISL:1,2013-11-06T15:00:00Z,30.2513,-88.0778,2.227,7.62,1111122 
DISL,ioos:station:DISL:DISL:1,2013-11-06T15:30:00Z,30.2513,-88.0778,2.179,7.49,1111122 